{"data":{"norad_id":67472,"epoch":"2026-05-25T00:29:56.503104Z","epoch_age_seconds":63324,"freshness":"FRESH","line1":"1 67472U 26008AD  26145.02079286  .00028434  00000+0  10378-2 0  9995","line2":"2 67472  43.0008 134.3473 0000845 264.2006  95.8750 15.27611803 21242","mean_motion":15.27611803,"eccentricity":8.45e-5,"inclination_deg":43.0008,"raan_deg":134.3473,"arg_perigee_deg":264.2006,"mean_anomaly_deg":95.875,"bstar":0.0010378,"rev_number":2124,"period_min":94.264786195816,"perigee_km":482.37410589037,"apogee_km":483.53363024708,"semimajor_km":6861.0908680687,"source":"CELESTRAK","updated_at":"2026-05-25T13:38:21.565497Z"}}